Flag for Russia Weather past 2 weeks in Ulyanovsk, Russia

Now
79 °F

Warm.


Feels Like: 81 °F
Forecast: 68 / 82 °F
Wind: 3 mph from Southeast

Location: Ulyanovsk

Current Time: May 30, 2015 at 8:39:24 AM

Latest Report: May 30, 2015 at 8:00 AM


Visibility: 5 mi

Pressure: 29.95 "Hg

Humidity: 65%

Dew point: 66 °F

Location of UlyanovskLocation

Historic Weather in Ulyanovsk — Graph

°F

Ulyanovsk temperature yesterday

Maximum temperature yesterday: 90 °F (at 2:00 PM)
Minimum temperature yesterday: 66 °F (at 4:00 AM)
Average temperature yesterday: 78 °F

Past Weeks' High & Low Weather Summary

 TemperatureHumidityPressure
High90 °F (May 27, 2:00 PM)100% (May 16, 3:00 AM)30.12 "Hg (May 16, 3:00 AM)
Low39 °F (May 18, 2:00 AM)26% (May 27, 3:00 PM)29.36 "Hg (May 18, 6:00 AM)
Average65 °F71%29.83 "Hg
* Reported May 15 7:00 AM — May 30 7:00 AM, Ulyanovsk, Weather by CustomWeather, © 2015

Note: Actual official high and low records may vary slightly from our data, if they occured in-between our weather recording intervals... More about our weather records

Advertising

Ulyanovsk weather history for previous 24 hours

 ConditionsComfort  
Time TempWeatherWind HumidityBarometerVisibility
7:00 AM
Sat, May 30
75 °FMild.6 mph74%29.95 "Hg5 mi
6:00 AM70 °FMild.3 mph94%29.95 "Hg5 mi
5:00 AM66 °FBroken clouds.3 mph94%29.95 "Hg5 mi
4:00 AM64 °FThunderstorms. Partly cloudy.1 mph94%29.95 "Hg5 mi
3:00 AM63 °FClear.1 mph94%29.95 "HgN/A
2:00 AM64 °FClear.No wind94%29.95 "HgN/A
1:00 AM66 °FClear.3 mph88%29.95 "HgN/A
12:00 AM68 °FClear.1 mph83%29.92 "HgN/A
11:00 PM
Fri, May 29
70 °FClear.3 mph83%29.92 "HgN/A
10:00 PM72 °FClear.6 mph88%29.92 "HgN/A
9:00 PM73 °FClear.3 mph78%29.89 "HgN/A
8:00 PM77 °FBroken clouds.6 mph69%29.89 "Hg5 mi
7:00 PM82 °FBroken clouds.13 mph58%29.89 "Hg5 mi
6:00 PM86 °FBroken clouds.10 mph59%29.89 "Hg5 mi
5:00 PM88 °FScattered clouds.13 mph52%29.89 "Hg5 mi
4:00 PM88 °FScattered clouds.13 mph52%29.89 "Hg5 mi
3:00 PM90 °FScattered clouds.13 mph49%29.89 "Hg5 mi
2:00 PM90 °FPassing clouds.13 mph49%29.89 "Hg5 mi
1:00 PM88 °FScattered clouds.13 mph55%29.89 "Hg5 mi
12:00 PM86 °FBroken clouds.17 mph59%29.89 "Hg5 mi
11:00 AM84 °FBroken clouds.8 mph62%29.89 "Hg5 mi
10:00 AM79 °FBroken clouds.6 mph65%29.92 "Hg5 mi
9:00 AM79 °FClear.8 mph65%29.89 "Hg5 mi
8:00 AM79 °FClear.8 mph65%29.89 "Hg5 mi
Weather by CustomWeather, © 2015

See weather overviewHow to use our weather pages